[Iaude] MPEC T13: 2023 TE [a=1.12,e=0.15,i=7.9,H=26.8]

mpec at marsden.cfa.harvard.edu mpec at marsden.cfa.harvard.edu
Wed Oct 4 07:53:02 EDT 2023


M.P.E.C. 2023-T13                               Issued 2023 October 4, 11:51 UT

     The Minor Planet Electronic Circulars contain information on unusual
         minor planets, routine data on comets and natural satellites,
         and occasional editorial announcements.  They are published
    on behalf of Division F of the International Astronomical Union by the
          Minor Planet Center, Smithsonian Astrophysical Observatory,
                          Cambridge, MA 02138, U.S.A.
			  
             Prepared using the Tamkin Foundation Computer Network

                              MPC at CFA.HARVARD.EDU
            URL https://www.minorplanetcenter.net/    ISSN 1523-6714

                                    2023 TE                                     


Observations:
     K23T00E*1C2023 10 03.30578600 47 02.288+48 18 17.17         20.49GVET013G96
     K23T00E 1C2023 10 03.31166900 47 07.026+48 18 13.00         20.46GVET013G96
     K23T00E 1C2023 10 03.31751700 47 11.569+48 18 08.39         20.25GVET013G96
     K23T00E 1C2023 10 03.32336600 47 16.184+48 18 03.56         20.54GVET013G96
     K23T00E KC2023 10 03.36832800 47 50.810+48 17 03.06         20.7 GVET013H01
     K23T00E KC2023 10 03.37627100 47 57.291+48 16 52.42         20.7 GVET013H01
     K23T00E KC2023 10 03.38278000 48 02.627+48 16 43.31         20.6 GVET013H01
     K23T00E KC2023 10 03.38986500 48 08.530+48 16 33.18         20.9 GVET013H01
     K23T00E KC2023 10 03.42459200 48 38.675+48 15 53.71         20.51GVET013I52
     K23T00E KC2023 10 03.42566300 48 39.650+48 15 51.95         20.62GVET013I52
     K23T00E KC2023 10 03.42674800 48 40.576+48 15 50.33         20.89GVET013I52
     K23T00E hC2023 10 03.91490300 57 30.32 +48 06 52.8          20.4 GVET013L01
     K23T00E hC2023 10 03.91742700 57 32.86 +48 06 49.6          20.6 GVET013L01
     K23T00E hC2023 10 03.92247300 57 37.60 +48 06 45.5          20.3 GVET013L01
     K23T00E KB2023 10 03.97286000 58 30.99 +48 05 47.9          19.9 GVET013I93
     K23T00E KB2023 10 03.98126300 58 39.00 +48 05 38.7                VET013I93
     K23T00E KB2023 10 03.98952500 58 46.90 +48 05 28.4          19.9 GVET013I93
     K23T00E 7C2023 10 04.12524001 00 58.289+48 02 13.50         20.6 GXET013Z84
     K23T00E 7C2023 10 04.12804601 01 01.049+48 02 07.10         20.6 GXET013Z84
     K23T00E  C2023 10 04.12902701 01 46.189+48 01 13.63         20.1 GVET013H01
     K23T00E  C2023 10 04.13337201 01 50.778+48 01 12.35         20.1 GVET013H01
     K23T00E  C2023 10 04.14327101 02 01.194+48 01 08.91         20.8 GVET013H01
     K23T00E  C2023 10 04.15014201 02 08.386+48 01 06.18         20.4 GVET013H01
     K23T00E KC2023 10 04.16644301 02 24.69 +48 00 56.5          19.8 GXET013858
     K23T00E KC2023 10 04.17345701 02 31.89 +48 00 51.8          20.2 GXET013858
     K23T00E KC2023 10 04.18021501 02 38.83 +48 00 47.8          19.9 GXET013858
     K23T00E 1C2023 10 04.36582401 05 47.256+47 56 47.47         20.31GVET013G96
     K23T00E 1C2023 10 04.37098201 05 52.516+47 56 35.99         20.34GVET013G96
     K23T00E 1C2023 10 04.37745801 05 59.136+47 56 21.34         20.19GVET013G96

Observer details:
858 Tebbutt Observatory, Edgewood.  Observer F. B. Zoltowski.  0.51-m f/8.1
    Schmidt-Cassegrain + CCD.
G96 Mt. Lemmon Survey.  Observer G. J. Leonard.  Measurers E. J. Christensen,
    D. Fay, J. B. Fazekas, D. C. Fuls, A. R. Gibbs, A. D. Grauer, H. Groeller,
    J. K. Hogan, R. A. Kowalski, S. M. Larson, G. J. Leonard, D. Rankin, R. L.
    Seaman, A. Serrano, F. C. Shelly, K. W. Wierzchos, E. C. Beshore.  1.5-m
    reflector + 10K CCD.
H01 Magdalena Ridge Observatory, Socorro.  Observers W. H. Ryan, E. V. Ryan.
    Measurer W. H. Ryan.  2.4-m f/8.9 Ritchey-Chretien + CCD.
I52 Steward Observatory, Mt. Lemmon Station.  Observer D. Rankin.  Measurers
    E. J. Christensen, D. Fay, J. B. Fazekas, D. C. Fuls, A. R. Gibbs, A. D.
    Grauer, H. Groeller, J. K. Hogan, R. A. Kowalski, S. M. Larson, G. J.
    Leonard, D. Rankin, R. L. Seaman, A. Serrano, F. C. Shelly, K. W.
    Wierzchos.  1.0-m prime focus + CCD.
I93 St Pardon de Conques.  Observer F. Losse.  0.40-m f/3.7 reflector + CMO.
L01 Visnjan Observatory, Tican.  Observer K. Korlevic.  1.0-m f/2.9 reflector
    + CCD.
Z84 Calar Alto-Schmidt.  Observers F. Ocana, M. Micheli, R. Kresken, L.
    Conversi.  Measurers F. Ocana, M. Micheli.  0.8-m f/3 Schmidt + CCD.

Orbital elements:
2023 TE                                                  Earth MOID = 0.0049 AU
Epoch 2023 Sept. 13.0 TT = JDT 2460200.5                Veres                   
M 294.47596              (2000.0)            P               Q                  
n   0.83431402     Peri.  236.47775     +0.28539649     -0.95756415             
a   1.1175055      Node   197.07774     +0.91849978     +0.28526261             
e   0.1547362      Incl.    7.87694     +0.27369142     +0.04118433             
P   1.18           H   26.89          G   0.15           U   7                  
Residuals in seconds of arc
231003 G96  0.3-  0.2-    231003 I52  0.0   0.1+    231004 H01  0.0   0.0
231003 G96  0.7+  0.0     231003 L01  0.8-  0.2-    231004 H01  0.0   0.0
231003 G96  0.0   0.0     231003 L01  0.8+  1.1-    231004 H01  0.0   0.1-
231003 G96  0.1-  0.0     231003 L01  0.5+  0.4-    231004 858  0.0   0.4+
231003 H01  0.4+  0.1-    231003 I93  0.9-  0.3+    231004 858  0.2-  0.4-
231003 H01  0.2+  0.1-    231003 I93  0.7-  0.5+    231004 858  0.2-  0.4-
231003 H01  0.0   0.1-    231003 I93  0.3-  0.0     231004 G96  0.1-  0.0
231003 H01  0.3+  0.0     231004 Z84  0.2+  0.0     231004 G96  0.2+  0.1-
231003 I52  0.7-  0.1-    231004 Z84  0.3-  0.1+    231004 G96  0.4+  0.0
231003 I52  0.0   0.1-    231004 H01  0.0   0.0

Ephemeris:
2023 TE                  a,e,i = 1.12, 0.15, 8                   q = 0.9446
Date    TT    R. A. (2000) Decl.     Delta      r    Elong.  Phase     V
2023 09 04    23 05 50.8 +41 55 23   0.1235  1.0929   130.5    44.6    24.3
...
2023 09 19    23 21 37.3 +46 00 21   0.07286 1.0549   132.0    45.1    23.0
...
2023 09 27    23 47 48.9 +47 45 38   0.04709 1.0354   133.3    44.8    22.0
...
2023 10 03    00 42 17.7 +48 20 03   0.02853 1.0213   135.3    43.6    20.9
2023 10 04    00 58 54.8 +48 04 53   0.02557 1.0190   135.7    43.3    20.6
2023 10 05    01 19 26.8 +47 31 40   0.02270 1.0167   136.1    43.0    20.4
...
2023 10 11    05 18 22.3 +15 26 14   0.01090 1.0036   117.0    62.5    19.3
...
2023 10 19    08 43 58.0 -35 05 58   0.02716 0.9873    69.9   108.6    23.1
...
2023 11 03    09 58 56.7 -42 49 33   0.07271 0.9623    63.8   112.3    25.4

M. P. C. Staff               (C) Copyright 2023 MPC           M.P.E.C. 2023-T13





More information about the Iaude mailing list